Location: Newark
(39.0622°N, 106.5590°E)
Time: 02:02:11
(UTC+00:00)

Courier 1B - Pass Details

Date: 31 January 2020
Orbit: 962 x 1209 km, 28.3° (Epoch: 25 February)

Event Time Altitude Azimuth Distance (km) Brightness Sun altitude
Rises 15:51:22 0° 213° (SSW) 3,638 - -62.8°
Reaches altitude 10° 15:55:02 10° 193° (SSW) 2,716 - -63.3°
Maximum altitude 15:58:55 16° 156° (SSE) 2,314 - -63.7°
Drops below altitude 10° 16:02:54 10° 120° (ESE) 2,797 - -64.2°
Sets 16:06:45 0° 100° (E) 3,800 - -64.7°
